TimeCST,TemperatureF,Dew PointF,Humidity,Sea Level PressureIn,VisibilityMPH,Wind Direction,Wind SpeedMPH,Gust SpeedMPH,PrecipitationIn,Events,Conditions,WindDirDegrees,DateUTC
12:03 AM,35.6,33.8,93,30.16,2.5,SE,4.6,-,0.01,,Clear,140,2012-11-09 06:03:00
12:53 AM,35.1,32.0,89,30.16,2.5,SSE,3.5,-,0.01,,Clear,160,2012-11-09 06:53:00
1:11 AM,35.6,33.8,93,30.16,3.0,SSE,5.8,-,N/A,,Clear,150,2012-11-09 07:11:00
1:35 AM,35.6,32.0,87,30.17,2.5,SSE,4.6,-,N/A,,Clear,160,2012-11-09 07:35:00
1:53 AM,36.0,32.0,86,30.17,2.5,South,3.5,-,N/A,,Clear,180,2012-11-09 07:53:00
2:53 AM,36.0,33.1,89,30.19,2.5,Calm,Calm,-,N/A,,Clear,0,2012-11-09 08:53:00
3:53 AM,35.1,32.0,89,30.18,2.5,SSE,5.8,-,N/A,,Clear,160,2012-11-09 09:53:00
4:53 AM,35.1,32.0,89,30.18,2.5,SSE,6.9,-,N/A,,Clear,160,2012-11-09 10:53:00
5:53 AM,36.0,33.1,89,30.18,2.5,Calm,Calm,-,N/A,,Clear,0,2012-11-09 11:53:00
6:12 AM,37.4,33.8,87,30.18,3.0,SSE,3.5,-,N/A,,Clear,160,2012-11-09 12:12:00
6:30 AM,37.4,33.8,87,30.18,2.0,SSE,4.6,-,N/A,,Clear,160,2012-11-09 12:30:00
6:53 AM,37.0,34.0,89,30.19,1.8,SSE,5.8,-,N/A,,Clear,150,2012-11-09 12:53:00
7:41 AM,42.8,37.4,81,30.18,2.0,SSE,9.2,-,N/A,,Haze,150,2012-11-09 13:41:00
7:53 AM,45.0,39.0,80,30.19,3.0,SSE,11.5,-,N/A,,Haze,160,2012-11-09 13:53:00
8:53 AM,50.0,39.9,68,30.19,4.0,South,11.5,-,N/A,,Haze,170,2012-11-09 14:53:00
9:53 AM,55.0,41.0,59,30.17,6.0,South,11.5,-,N/A,,Haze,180,2012-11-09 15:53:00
10:53 AM,57.9,41.0,53,30.16,8.0,South,15.0,-,N/A,,Clear,180,2012-11-09 16:53:00
11:53 AM,62.1,42.1,48,30.12,9.0,South,16.1,-,N/A,,Clear,180,2012-11-09 17:53:00
12:53 PM,64.9,42.1,43,30.08,9.0,South,20.7,26.5,N/A,,Clear,180,2012-11-09 18:53:00
1:53 PM,66.9,42.1,40,30.06,10.0,South,20.7,-,N/A,,Clear,170,2012-11-09 19:53:00
2:53 PM,66.9,43.0,42,30.05,10.0,South,17.3,-,N/A,,Clear,180,2012-11-09 20:53:00
3:53 PM,66.0,43.0,43,30.04,9.0,South,15.0,23.0,N/A,,Clear,180,2012-11-09 21:53:00
4:53 PM,61.0,43.0,52,30.04,10.0,South,12.7,-,N/A,,Clear,170,2012-11-09 22:53:00
5:53 PM,57.9,42.1,56,30.05,10.0,South,10.4,-,N/A,,Clear,170,2012-11-09 23:53:00
6:53 PM,55.9,42.1,60,30.05,10.0,South,9.2,-,N/A,,Clear,180,2012-11-10 00:53:00
7:53 PM,55.9,42.1,60,30.05,9.0,South,11.5,-,N/A,,Clear,180,2012-11-10 01:53:00
8:53 PM,54.0,41.0,62,30.06,9.0,South,10.4,-,N/A,,Clear,180,2012-11-10 02:53:00
9:53 PM,55.9,41.0,57,30.06,9.0,South,12.7,-,N/A,,Clear,180,2012-11-10 03:53:00
10:53 PM,54.0,41.0,62,30.06,10.0,South,9.2,-,N/A,,Clear,180,2012-11-10 04:53:00
11:53 PM,52.0,41.0,66,30.07,9.0,South,9.2,-,N/A,,Clear,180,2012-11-10 05:53:00